[[{"header":{"parameterUnit":"m.s-1","parameterCategory":1,"la1":30.2991,"la2":30.254,"lo1":-89.0895,"lo2":-89.0444,"dy":0.0017,"dx":0.0017,"nx":28,"ny":28,"refTime":"2024-05-20T21:00:00:Z","depth":0,"parameterNumber":2,"parameterNumberName":"U-component_of_WINDS"},"data":[0,0,0,0,0,0,0,0,0,0,0,0,0,0,0,0,0,0,0,0,0,0,0,0,0,0,0,0,0,0,0,0,0,0,0,0,0,0,0,0,0,0,0,0,0,0,0,0,0,0,0,0,0,0,0,0,0,0,-1.323,-1.3231,0,-1.3281,-1.3281,-1.3282,-1.3271,-1.327,-1.327,-1.3269,-1.3321,-1.3323,-1.3326,0,0,0,0,0,0,0,0,0,0,0,0,0,-1.3127,-1.3129,-1.323,-1.3231,-1.3232,-1.328,-1.3281,-1.3282,-1.3272,-1.327,-1.3269,-1.3268,-1.332,-1.3323,-1.3326,0,0,0,0,0,0,0,0,0,0,0,0,0,-1.3174,-1.313,-1.323,-1.3232,-1.3233,-1.328,-1.3281,-1.3282,-1.3272,-1.327,-1.3269,-1.3268,-1.3319,-1.3323,-1.3326,-1.3375,0,0,-1.3336,-1.3338,0,0,0,0,0,0,0,0,-1.3172,-1.3178,-1.3231,-1.3232,-1.3233,-1.3268,-1.3264,-1.3313,-1.3272,-1.3257,-1.3269,-1.3267,-1.3305,-1.3309,-1.3322,-1.3377,-1.3379,-1.3337,-1.3339,-1.334,-1.3341,0,0,0,0,0,0,0,-1.3168,-1.3176,-1.325,-1.3232,-1.3233,-1.3231,-1.3236,-1.3273,-1.3288,-1.3258,-1.3258,-1.3264,-1.3305,-1.3318,-1.3323,-1.338,-1.3337,-1.334,-1.3342,-1.3343,-1.3479,-1.3481,0,0,0,0,0,0,-1.3164,-1.3173,-1.3249,-1.3252,-1.3198,-1.3234,-1.324,-1.3258,-1.3288,-1.3291,-1.3265,-1.3263,-1.3313,-1.3319,-1.3325,-1.3384,-1.334,-1.3343,-1.3345,-1.3478,-1.348,-1.3481,0,0,0,0,0,0,-1.3162,-1.3171,-1.3247,-1.3212,-1.3222,-1.3238,-1.3258,-1.326,-1.3274,-1.3293,-1.3295,-1.3276,-1.3313,-1.332,-1.3363,-1.3386,-1.3345,-1.3348,-1.3476,-1.3478,-1.348,-1.3503,0,0,0,0,0,0,-1.3159,-1.317,-1.3189,-1.3213,-1.3224,-1.3283,-1.326,-1.3262,-1.3279,-1.3278,-1.3304,-1.3307,-1.3312,-1.3358,-1.3366,-1.339,-1.3351,-1.3474,-1.3477,-1.348,-1.35,-1.3506,-1.3511,0,0,0,0,0,-1.3155,-1.3193,-1.3189,-1.3199,-1.3247,-1.3285,-1.3291,-1.3296,-1.3281,-1.33,-1.3312,-1.3306,-1.3382,-1.3362,-1.3371,-1.3396,-1.3472,-1.3476,-1.3479,-1.3498,-1.3505,-1.3511,0,0,0,0,0,0,-1.3171,-1.3196,-1.3193,-1.3239,-1.326,-1.3283,-1.3306,-1.3303,-1.3328,-1.3326,-1.3331,-1.3337,-1.3381,-1.3393,-1.337,-1.3446,-1.3425,-1.3431,-1.3436,-1.3443,-1.3448,-1.3444,-1.3353,0,0,0,0,0,-1.318,-1.3208,-1.3229,-1.3268,-1.3278,-1.3291,-1.3307,-1.3309,-1.3331,-1.334,-1.3355,-1.3377,-1.3406,-1.3425,-1.3453,-1.3502,-1.3508,-1.3524,-1.3529,-1.3533,-1.3538,-1.3566,-1.3574,-1.3493,-1.3493,-1.3493,0,0,-1.3198,-1.3216,-1.3233,-1.3271,-1.3287,-1.3317,-1.3298,-1.333,-1.3352,-1.3345,-1.3386,-1.3398,-1.3423,-1.347,-1.3491,-1.3481,-1.3562,-1.3538,-1.3541,-1.3544,-1.3571,-1.3578,-1.3585,-1.3495,-1.3495,-1.3495,0,0,-1.3247,-1.3263,-1.3297,-1.3314,-1.3339,-1.3347,-1.3356,-1.338,-1.3387,-1.3429,-1.3424,-1.3451,-1.35,-1.3519,-1.3534,-1.3591,-1.3586,-1.36,-1.3627,-1.3654,-1.366,-1.3666,-1.3687,-1.3694,-1.3605,-1.3605,-1.3605,0,-1.3267,-1.3311,-1.3316,-1.3348,-1.3366,-1.336,-1.3396,-1.3412,-1.3445,-1.3457,-1.3446,-1.3508,-1.3525,-1.3575,-1.3589,-1.3602,-1.3612,-1.3597,-1.3659,-1.3665,-1.367,-1.369,-1.3698,-1.3606,-1.3606,-1.3606,-1.3606,0,-1.3335,-1.3366,-1.3391,-1.3422,-1.3442,-1.3476,-1.3486,-1.3506,-1.3507,-1.3517,-1.3559,-1.3579,-1.3611,-1.3623,-1.3624,-1.3674,-1.3667,-1.3658,-1.3637,-1.3679,-1.3698,-1.3706,-1.3608,-1.3608,-1.3607,-1.3607,0,0,-1.3395,-1.3429,-1.3438,-1.3453,-1.348,-1.3504,-1.3538,-1.3569,-1.3586,-1.3609,-1.3639,-1.3681,-1.3672,-1.369,-1.3693,-1.3717,-1.3761,-1.3704,-1.3705,-1.3714,-1.3819,-1.3826,-1.3835,-1.3758,-1.376,-1.3761,-1.3817,0,-1.3446,-1.3506,-1.3511,-1.3565,-1.3594,-1.359,-1.3619,-1.364,-1.365,-1.3676,-1.3688,-1.3718,-1.3704,-1.3715,-1.3738,-1.3751,-1.3782,-1.3747,-1.3786,-1.3787,-1.378,-1.3845,-1.3853,-1.3904,-1.3824,-1.3826,-1.3826,0,-1.3515,-1.354,-1.3596,-1.362,-1.3633,-1.3659,-1.3688,-1.3713,-1.3737,-1.3743,-1.3763,-1.3763,-1.3799,-1.3777,-1.3827,-1.3803,-1.3819,-1.3828,-1.383,-1.3834,-1.381,-1.3851,-1.3921,-1.3929,-1.3838,-1.3837,-1.3836,0,-1.3553,-1.3601,-1.3641,-1.3654,-1.3683,-1.3702,-1.3715,-1.3737,-1.3755,-1.3781,-1.3793,-1.3823,-1.3839,-1.3862,-1.3871,-1.3854,-1.3921,-1.3899,-1.3927,-1.3927,-1.3941,-1.394,-1.4015,-1.3951,-1.3951,-1.3951,-1.3951,0,-1.361,-1.3645,-1.3659,-1.3684,-1.3723,-1.3729,-1.3768,-1.378,-1.38,-1.3828,-1.3826,-1.3852,-1.3861,-1.3889,-1.3896,-1.3937,-1.3944,-1.395,-1.3951,-1.395,-1.395,-1.3961,-1.3958,-1.3953,-1.3953,-1.3952,-1.3952,0,-1.366,-1.367,-1.3714,-1.3738,-1.3745,-1.3773,-1.3794,-1.3818,-1.3828,-1.3863,-1.3871,-1.3887,-1.392,-1.3931,-1.397,-1.3975,-1.4022,-1.4021,-1.4014,-1.4015,-1.4042,-1.4039,-1.4127,-1.4139,-1.4067,-1.4068,-1.4068,0,-1.3696,-1.3723,-1.375,-1.3768,-1.3782,-1.3811,-1.383,-1.3837,-1.3857,-1.3886,-1.3907,-1.394,-1.3966,-1.4019,-1.4034,-1.4064,-1.4064,-1.4092,-1.4068,-1.4066,-1.4065,-1.4063,-1.4066,-1.4097,-1.4098,-1.4098,-1.4099,0,-1.3759,-1.3763,-1.379,-1.3819,-1.3842,-1.3865,-1.3888,-1.3903,-1.3914,-1.3936,-1.397,-1.399,-1.4031,-1.4063,-1.4094,-1.4108,-1.4106,-1.4106,-1.4114,-1.4114,-1.4109,-1.4112,-1.4027,-1.4104,-1.4104,-1.4103,-1.4103,-1.4103,-1.3803,-1.3827,-1.385,-1.388,-1.3898,-1.3919,-1.3944,-1.3957,-1.3984,-1.4018,-1.4021,-1.4057,-1.408,-1.4122,-1.4138,-1.4167,-1.4159,-1.417,-1.4173,-1.4176,-1.4178,-1.4104,-1.4172,-1.4172,-1.4172,-1.4172,-1.4172,0,-1.3866,-1.3881,-1.3909,-1.3941,-1.3965,-1.396,-1.3985,-1.4006,-1.4037,-1.4059,-1.4085,-1.4124,-1.4156,-1.4174,-1.4206,-1.4225,-1.4225,-1.4233,-1.4232,-1.4236,-1.4183,-1.4173,-1.4233,-1.4233,-1.4233,-1.4233,-1.4233,-1.4233,-1.3902,-1.3942,-1.3949,-1.3999,-1.4013,-1.4048,-1.4063,-1.4083,-1.4101,-1.4144,-1.417,-1.4182,-1.4202,-1.4236,-1.4265,-1.4269,-1.4281,-1.4291,-1.4295,-1.4246,-1.4239,-1.4233,-1.4224,-1.4293,-1.4293,-1.4344,-1.4345,-1.4345]},{"header":{"parameterUnit":"m.s-1","parameterCategory":1,"la1":30.2991,"la2":30.254,"lo1":-89.0895,"lo2":-89.0444,"dy":0.0017,"dx":0.0017,"nx":28,"ny":28,"refTime":"2024-05-20T21:00:00:Z","depth":0,"parameterNumber":3,"parameterNumberName":"V-component_of_WINDS"},"data":[0,0,0,0,0,0,0,0,0,0,0,0,0,0,0,0,0,0,0,0,0,0,0,0,0,0,0,0,0,0,0,0,0,0,0,0,0,0,0,0,0,0,0,0,0,0,0,0,0,0,0,0,0,0,0,0,0,0,1.165,1.1649,0,1.162,1.162,1.1619,1.158,1.1579,1.1578,1.1578,1.1546,1.1545,1.1545,0,0,0,0,0,0,0,0,0,0,0,0,0,1.1671,1.1671,1.165,1.1649,1.1649,1.162,1.162,1.1619,1.158,1.1579,1.1578,1.1577,1.1546,1.1545,1.1545,0,0,0,0,0,0,0,0,0,0,0,0,0,1.1654,1.1671,1.165,1.1626,1.1623,1.162,1.162,1.1619,1.158,1.1579,1.1578,1.1577,1.1546,1.1546,1.1545,1.1563,0,0,1.1544,1.1544,0,0,0,0,0,0,0,0,1.1655,1.1653,1.163,1.1627,1.1625,1.1602,1.1615,1.16,1.158,1.1596,1.1578,1.1576,1.1565,1.1563,1.156,1.1561,1.156,1.1544,1.1544,1.1544,1.1544,0,0,0,0,0,0,0,1.1656,1.1654,1.1638,1.1629,1.1626,1.1616,1.1613,1.1612,1.1587,1.1595,1.1592,1.1589,1.1564,1.156,1.1559,1.1559,1.1544,1.1544,1.1543,1.1543,1.1574,1.1575,0,0,0,0,0,0,1.1661,1.1655,1.1639,1.1637,1.1638,1.1617,1.1613,1.1611,1.1586,1.1582,1.159,1.1587,1.1561,1.1559,1.1557,1.1577,1.1544,1.1543,1.1543,1.1573,1.1574,1.1575,0,0,0,0,0,0,1.1662,1.166,1.164,1.1645,1.1642,1.1617,1.1615,1.161,1.1607,1.1583,1.1578,1.1591,1.156,1.1558,1.1562,1.1575,1.1543,1.1543,1.1572,1.1573,1.1575,1.1615,0,0,0,0,0,0,1.1663,1.166,1.1667,1.1646,1.1642,1.1645,1.1616,1.1611,1.1607,1.1603,1.1583,1.1578,1.156,1.1563,1.1562,1.1574,1.1543,1.157,1.1572,1.1574,1.1612,1.1618,1.1622,0,0,0,0,0,1.1663,1.1679,1.1667,1.1666,1.165,1.1646,1.1644,1.1622,1.1608,1.1614,1.1599,1.1579,1.1574,1.1563,1.1562,1.1574,1.1569,1.1572,1.1574,1.161,1.1617,1.1622,0,0,0,0,0,0,1.1702,1.1676,1.1663,1.1672,1.1662,1.1639,1.1646,1.163,1.1623,1.162,1.1593,1.1588,1.1596,1.1585,1.1574,1.159,1.1569,1.1571,1.1597,1.1603,1.1608,1.161,1.1542,0,0,0,0,0,1.1711,1.1711,1.1688,1.1698,1.1694,1.1671,1.1669,1.1653,1.1641,1.1637,1.1621,1.161,1.1606,1.1604,1.1599,1.1611,1.1606,1.1619,1.1624,1.1628,1.163,1.1636,1.1642,1.1583,1.1583,1.1583,0,0,1.1731,1.1717,1.1718,1.1706,1.1696,1.1696,1.1668,1.1669,1.1669,1.1636,1.1639,1.1628,1.1614,1.1622,1.1625,1.1614,1.1645,1.1631,1.1634,1.1634,1.1639,1.1645,1.165,1.1584,1.1584,1.1584,0,0,1.1766,1.1756,1.1763,1.1754,1.174,1.1725,1.1727,1.1708,1.1699,1.1702,1.1678,1.1677,1.1671,1.1662,1.1656,1.169,1.1671,1.1689,1.1715,1.1721,1.1726,1.173,1.1742,1.1747,1.1691,1.1691,1.1691,0,1.1792,1.1792,1.1769,1.1772,1.1768,1.174,1.1747,1.1739,1.1724,1.1722,1.1709,1.1701,1.1689,1.1695,1.1704,1.17,1.1702,1.1691,1.1727,1.1731,1.1734,1.1746,1.175,1.1693,1.1693,1.1693,1.1693,0,1.1825,1.1825,1.1833,1.1819,1.1816,1.1821,1.1799,1.1798,1.1784,1.177,1.1773,1.1759,1.175,1.1751,1.1736,1.1755,1.1748,1.1732,1.171,1.1742,1.1753,1.1757,1.1696,1.1696,1.1695,1.1694,0,0,1.1883,1.1858,1.1861,1.1855,1.1838,1.1837,1.1842,1.1834,1.1834,1.1825,1.1827,1.1823,1.1808,1.1802,1.1786,1.1792,1.182,1.1774,1.1774,1.1784,1.1841,1.1853,1.1859,1.1808,1.1808,1.1809,1.1842,0,1.1916,1.1922,1.1902,1.1913,1.1913,1.1887,1.189,1.188,1.1868,1.1866,1.1852,1.1849,1.1829,1.1826,1.183,1.1816,1.1831,1.1813,1.181,1.181,1.1815,1.1864,1.1877,1.1909,1.1846,1.1847,1.1847,0,1.1954,1.1948,1.1959,1.1942,1.1941,1.1945,1.1937,1.1935,1.1923,1.1914,1.1908,1.1889,1.1892,1.1872,1.1875,1.1863,1.1861,1.1854,1.1855,1.1853,1.1831,1.1865,1.1919,1.1924,1.1853,1.1853,1.1852,0,1.1996,1.199,1.1996,1.1992,1.1972,1.1975,1.1967,1.1954,1.1951,1.1944,1.1942,1.1935,1.1931,1.1926,1.1907,1.1893,1.1913,1.189,1.1905,1.1906,1.1911,1.1911,1.1965,1.1909,1.1909,1.1909,1.1909,0,1.2035,1.2043,1.2015,1.2019,1.2027,1.2004,1.2013,1.2002,1.1991,1.1992,1.1969,1.1971,1.1945,1.1943,1.1928,1.1934,1.1932,1.1925,1.1921,1.1927,1.1928,1.1925,1.1922,1.191,1.191,1.191,1.191,0,1.2083,1.2064,1.2069,1.205,1.2046,1.2053,1.2036,1.2039,1.2026,1.2028,1.2027,1.2005,1.2003,1.1983,1.1976,1.1965,1.1977,1.1968,1.1981,1.1978,1.1995,1.1994,1.2049,1.2056,1.1996,1.1996,1.1997,0,1.2108,1.2114,1.2096,1.2095,1.2088,1.2088,1.2085,1.2063,1.2061,1.2048,1.2053,1.2048,1.2044,1.2041,1.2025,1.2019,1.201,1.203,1.2009,1.2016,1.2011,1.2011,1.2012,1.2035,1.2036,1.2036,1.2037,0,1.2156,1.2147,1.2144,1.2138,1.2136,1.213,1.2123,1.2123,1.2099,1.2098,1.2096,1.2092,1.2085,1.2082,1.2073,1.2065,1.2047,1.2044,1.2047,1.2053,1.2061,1.2057,1.1994,1.2042,1.2042,1.2041,1.2041,1.2041,1.2194,1.2198,1.2186,1.2184,1.2176,1.217,1.2172,1.2159,1.2157,1.215,1.2137,1.2137,1.2125,1.2113,1.2106,1.2105,1.2094,1.2099,1.21,1.2101,1.2105,1.2061,1.2103,1.2103,1.2103,1.2103,1.2102,0,1.2241,1.2232,1.223,1.2221,1.222,1.2204,1.2195,1.2195,1.2195,1.2186,1.2182,1.2179,1.2176,1.216,1.2154,1.2157,1.2149,1.2156,1.2156,1.2154,1.2115,1.2112,1.2163,1.2163,1.2163,1.2163,1.2163,1.2163,1.2265,1.2272,1.2261,1.2264,1.2255,1.2255,1.2251,1.2246,1.2238,1.2237,1.2234,1.2224,1.2212,1.2206,1.2202,1.2197,1.2196,1.2207,1.2199,1.2163,1.2157,1.2151,1.2149,1.2207,1.2207,1.2239,1.2239,1.224]}]]